OMA63A OOMS-OPKC

Flight info

Callsign OMA63A
Flight time N/A
Altitude 33000
Route MCT G216 LAKIV
Aircraft B739/M-SDE2E3FGHIRWXY/LB1

Departure

Time 2026-04-30 21:25
Airport Muscat International Airport (OOMS)

Arrival

Time N/A
Airport Jinnah International Airport (OPKC)
Time Latitude Longitude Altitude Speed Heading
2026-04-30 20:41 23.59934 58.27984 39 ft 0 kts 355°
2026-04-30 21:11 23.59926 58.27985 41 ft 2 kts 355°
2026-04-30 21:11 23.59911 58.27986 41 ft 2 kts 355°
2026-04-30 21:11 23.59896 58.27987 41 ft 2 kts 355°
2026-04-30 21:11 23.59881 58.27989 41 ft 2 kts 355°
2026-04-30 21:12 23.59869 58.27990 41 ft 0 kts 355°
2026-04-30 21:12 23.59856 58.27993 41 ft 2 kts 330°
2026-04-30 21:12 23.59845 58.28003 41 ft 2 kts 304°
2026-04-30 21:12 23.59840 58.28019 41 ft 2 kts 276°
2026-04-30 21:13 23.59839 58.28024 41 ft 1 kts 266°
2026-04-30 21:13 23.59840 58.28031 41 ft 0 kts 265°
2026-04-30 21:17 23.59840 58.28030 41 ft 0 kts 265°
2026-04-30 21:17 23.59838 58.27998 41 ft 9 kts 265°
2026-04-30 21:17 23.59833 58.27956 41 ft 0 kts 256°
2026-04-30 21:18 23.59820 58.27934 41 ft 10 kts 229°
2026-04-30 21:18 23.59739 58.27857 41 ft 17 kts 219°
2026-04-30 21:18 23.59639 58.27766 41 ft 19 kts 220°
2026-04-30 21:18 23.59554 58.27681 41 ft 16 kts 238°
2026-04-30 21:19 23.59532 58.27546 41 ft 20 kts 265°
2026-04-30 21:19 23.59536 58.27395 41 ft 17 kts 307°
2026-04-30 21:19 23.59670 58.27367 41 ft 24 kts 355°
2026-04-30 21:19 23.59856 58.27349 41 ft 27 kts 355°
2026-04-30 21:20 23.60043 58.27331 40 ft 26 kts 355°
2026-04-30 21:20 23.60231 58.27314 40 ft 27 kts 354°
2026-04-30 21:20 23.60412 58.27299 40 ft 21 kts
2026-04-30 21:20 23.60461 58.27441 40 ft 25 kts 84°
2026-04-30 21:21 23.60477 58.27676 40 ft 33 kts 87°
2026-04-30 21:21 23.60500 58.27925 40 ft 33 kts 86°
2026-04-30 21:21 23.60541 58.28429 40 ft 32 kts 83°
2026-04-30 21:22 23.60560 58.28670 40 ft 32 kts 84°
2026-04-30 21:22 23.60620 58.29393 40 ft 31 kts 84°
2026-04-30 21:23 23.60640 58.29586 40 ft 12 kts 60°
2026-04-30 21:23 23.60717 58.29608 40 ft 12 kts 353°
2026-04-30 21:23 23.60886 58.29584 39 ft 9 kts 328°
2026-04-30 21:24 23.60889 58.29528 39 ft 7 kts 266°
2026-04-30 21:24 23.60872 58.29330 39 ft 59 kts 264°
2026-04-30 21:24 23.60816 58.28635 40 ft 122 kts 264°
2026-04-30 21:24 23.60728 58.27508 49 ft 174 kts 264°
2026-04-30 21:25 23.60202 58.25006 660 ft 163 kts 243°
2026-04-30 21:25 23.59597 58.24603 71 ft 6 kts 156°